Location: Milton Keynes
(52.0316°N, 0.7531°W)
Time: 09:02:55
(UTC+00:00)

ISS - Pass Details

Date: 27 September 2022
Orbit: 414 x 421 km, 51.6° (Epoch: 02 December)

Event Time Altitude Azimuth Distance (km) Brightness Sun altitude
Rises 20:51:20 0° 282° (WNW) 2,373 1.6 -19.1°
Reaches altitude 10° 20:53:28 10° 276° (W) 1,506 0.2 -19.4°
Maximum altitude 20:56:44 47° 202° (SSW) 565 -3.2 -19.9°
Enters shadow 20:56:45 47° 201° (SSW) 565 -3.2 -19.9°
